This demonstration page uses our WeatherBlox Daily Observations layout. Learn more.

38.88101, -77.10428

Hourly Observations for October 18, 2017

Temp ( °F °C ) Dew Point ( °F °C ) Humidity (%) Winds ( mph kmh ) Pressure ( in mb ) Visibility ( mi km ) Precip ( " mm )
12:52 am 00:52 Hazy 49 9.4 41 5 74 74 SW 6 9 30.34 1027 6 9.65604 0 0
1:52 am 01:52 Clear 50 10 43 6.1 77 77 Calm 30.35 1028 10 16.0934 0 0
2:52 am 02:52 Mostly Clear 49 9.4 43 6.1 80 80 Calm 30.34 1028 9 14.48406 0 0
3:52 am 03:52 Mostly Clear 48 8.9 41 5 77 77 SW 3 6 30.34 1027 10 16.0934 0 0
4:52 am 04:52 Mostly Clear 47 8.3 41 5 80 80 SW 3 6 30.35 1028 10 16.0934 0 0
5:52 am 05:52 Mostly Clear 48 8.9 40 4.4 74 74 SW 3 6 30.36 1028 10 16.0934 0 0
6:52 am 06:52 Clear 46 7.8 40 4.4 79 79 SW 3 6 30.37 1029 10 16.0934 0 0
7:52 am 07:52 Sunny 48 8.9 40 4.4 74 74 Calm 30.38 1029 10 16.0934 0 0
8:52 am 08:52 Sunny 51 10.6 41 5 69 69 SSW 5 7 30.4 1030 10 16.0934 0 0
9:52 am 09:52 Sunny 56 13.3 43 6.1 62 62 SE 5 7 30.41 1030 10 16.0934 0 0
10:52 am 10:52 Sunny 60 15.6 45 7.2 58 58 ESE 5 7 30.4 1030 10 16.0934 0 0
11:52 am 11:52 Sunny 63 17.2 46 7.8 54 54 S 7 11 30.4 1030 10 16.0934 0 0
12:52 pm 12:52 Sunny 66 18.9 44 6.7 45 45 S 8 13 30.38 1029 10 16.0934 0 0
1:52 pm 13:52 Sunny 69 20.6 47 8.3 45 45 S 8 13 30.35 1028 10 16.0934 0 0
2:52 pm 14:52 Sunny 70 21.1 44 6.7 39 39 S 9 15 30.33 1027 10 16.0934 0 0
3:52 pm 15:52 Sunny 69 20.6 44 6.7 41 41 S 7 11 30.32 1027 10 16.0934 0 0
4:52 pm 16:52 Sunny 69 20.6 46 7.8 44 44 S 8 13 30.31 1026 10 16.0934 0 0
5:52 pm 17:52 Mostly Sunny 67 19.4 42 5.6 41 41 SSW 10 17 30.31 1026 10 16.0934 0 0
6:52 pm 18:52 Mostly Clear 63 17.2 47 8.3 56 56 S 8 13 30.3 1026 10 16.0934 0 0
7:52 pm 19:52 Mostly Clear 61 16.1 48 8.9 63 63 SSW 7 11 30.31 1027 10 16.0934 0 0
8:52 pm 20:52 Partly Cloudy 60 15.6 48 8.9 65 65 SSW 6 9 30.32 1027 10 16.0934 0 0
9:52 pm 21:52 Partly Cloudy 59 15 49 9.4 69 69 S 7 11 30.32 1027 10 16.0934 0 0
10:52 pm 22:52 Mostly Clear 57 13.9 49 9.4 74 74 SW 5 7 30.32 1027 10 16.0934 0 0
11:52 pm 23:52 Mostly Cloudy 56 13.3 50 10 81 81 SW 5 7 30.32 1027 10 16.0934 0 0

Powered by AerisWeather